x

South Hatteras - 225 South Of Cape Hatteras (41002) Wave Buoy

8:50pm - Sat 21st Oct 2017 All times are EDT. -4 hours from GMT.

  • Sig Wave height 4.3ft
  • Swell Direction
  • Peak Period 8s
  • Average Period 5s
  • Wind
    13mph, 16mph gusts
  • Sea Temp 80°f
  • Air Temp 76°f
  • Sea Pressure 1025.3mb
  • South Hatteras - 225 South Of Cape Hatteras
  • South Hatteras - 225 South Of Cape Hatteras

More Historic Weather Station data

Upgrade to MSW Pro to gain access to the past 30 days of data for over 8000 Wavebouys and Weather Stations around the globe.

Join

Comparision Forecast

View Surf forecast
   
Sat 10/21 8:50pm 4.5ft 8s 5s 13 16 mph 1025.3mb 80f 76f
7:50pm 4ft 9s 5s 11 13 mph 1025.2mb 80f 77f
6:50pm 4ft 8s 5s 11 13 mph 1024.9mb 80f 77f
5:50pm 4.5ft 8s 5s 13 16 mph 1024.3mb 80f 77f
4:50pm 4ft 8s 5s 13 16 mph 1024.2mb 80f 77f
3:50pm 4.5ft 8s 5s 11 13 mph 1024.4mb 80f 77f
2:50pm 4ft 8s 5s 13 18 mph 1024mb 80f 77f
1:50pm 4.5ft 8s 6s 13 16 mph 1024.4mb 80f 77f
12:50pm 4.5ft 8s 6s 11 16 mph 1024.6mb 80f 77f
11:50am 4.5ft 8s 6s 13 16 mph 1024.8mb 80f 77f
9:50am 4.5ft 9s 6s 13 18 mph 1024.5mb 80f 77f
8:50am 4ft 8s 5s 11 16 mph 1024mb 80f 77f
7:50am 4ft 8s 5s 13 18 mph 1023.2mb 80f 76f
6:50am 4.5ft 8s 6s 13 18 mph 1022.8mb 80f 76f
5:50am 4.5ft 8s 6s 13 18 mph 1022.5mb 80f 76f
4:50am 4.5ft 9s 6s 16 18 mph 1021.9mb 80f 76f
3:50am 4.5ft 8s 6s 13 18 mph 1021.8mb 80f 76f
2:50am 5ft 9s 6s 11 16 mph 1022.3mb 80f 76f
1:50am 4.5ft 8s 6s 9 13 mph 1022.6mb 80f 77f
12:50am 5ft 8s 6s 7 11 mph 1022.6mb 80f 77f
Fri 10/20 11:50pm 4ft 8s 6s 9 11 mph 1022.6mb 80f 77f
10:50pm 4ft 8s 6s 11 16 mph 1022.3mb 80f 76f
9:50pm 4.5ft 9s 6s 11 16 mph 1021.9mb 80f 76f
8:50pm 4.5ft 8s 6s 13 16 mph 1021.5mb 80f 76f
7:50pm 4.5ft 9s 6s 13 16 mph 1021.2mb 80f 77f
6:50pm 4.5ft 8s 6s 13 16 mph 1020.7mb 80f 77f
5:50pm 4.5ft 9s 5s 13 16 mph 1020.5mb 80f 77f
4:50pm 4.5ft 7s 5s 11 18 mph 1020.4mb 80f 77f
3:50pm 5ft 8s 6s 13 16 mph 1020.5mb 80f 77f
2:50pm 4.5ft 9s 5s 13 16 mph 1020.6mb 80f 77f
1:50pm 5ft 8s 5s 16 16 mph 1021mb 80f 77f
12:50pm 5ft 8s 5s 16 18 mph 1021.4mb 80f 77f
11:50am 5ft 8s 5s 13 18 mph 1022mb 80f 77f
10:50am 5ft 8s 5s 16 20 mph 1022mb 80f 77f
9:50am 5.5ft 8s 5s 18 20 mph 1021.9mb 80f 77f
8:50am 5.5ft 8s 5s 18 22 mph 1021.5mb 80f 77f
7:50am 5ft 8s 5s 18 20 mph 1020.6mb 80f 77f
6:50am 5.5ft 9s 6s 16 20 mph 1020.2mb 80f 77f
5:50am 5.5ft 9s 6s 16 18 mph 1019.6mb 80f 77f
4:50am 6ft 8s 6s 16 18 mph 1019.3mb 80f 77f
3:50am 6ft 8s 6s 13 18 mph 1019.3mb 80f 77f
2:50am 6ft 9s 6s 13 18 mph 1019.5mb 80f 77f
1:50am 5.5ft 9s 6s 16 18 mph 1019.9mb 80f 77f
12:50am 6ft 9s 6s 18 20 mph 1019.8mb 80f 77f
Thu 10/19 11:50pm 6ft 7s 6s 16 20 mph 1019.8mb 80f 78f
10:50pm 6ft 8s 6s 18 22 mph 1019.6mb 80f 77f
9:50pm 6ft 8s 6s 18 20 mph 1019.4mb 80f 78f
8:50pm 6ft 8s  -  20 25 mph 1019mb 80f 77f
7:50pm 6ft 8s 6s 20 22 mph 1018.9mb 80f 78f
6:50pm 6ft 8s 6s 20 25 mph 1018.4mb 80f 78f
5:50pm 6ft 8s 5s 20 22 mph 1018.1mb 80f 77f
4:50pm 6ft 8s 6s 18 25 mph 1018.1mb 80f 78f
3:50pm 6ft 8s 5s 18 22 mph 1018.2mb 80f 78f
2:50pm 6ft 7s 6s 18 22 mph 1018.5mb 80f 78f
1:50pm 6ft 7s 5s 18 22 mph 1018.9mb 80f 77f
12:50pm 7ft 8s 6s 18 22 mph 1019.8mb 80f 77f
11:50am 7ft 7s 6s 20 25 mph 1020.4mb 80f 77f
10:50am 7.5ft 8s 6s 22 27 mph 1020.5mb 80f 77f
9:50am 7.5ft 8s 6s 22 27 mph 1020.2mb 80f 77f
8:50am 8ft 7s 6s 22 27 mph 1020mb 80f 77f
7:50am 7.5ft 8s 6s 22 27 mph 1019.4mb 80f 77f
6:50am 8ft 8s 6s 22 27 mph 1019.2mb 80f 77f
5:50am 9ft 8s 6s 22 29 mph 1018.9mb 80f 77f
4:50am 8ft 8s 6s 22 27 mph 1018.6mb 80f 77f
3:50am 8.5ft 7s 6s 20 25 mph 1018.6mb 80f 76f
2:50am 8.5ft 7s 6s 20 22 mph 1019.4mb 80f 77f
1:50am 8ft 8s 6s 20 25 mph 1019.8mb 80f 77f
12:50am 8.5ft 7s 6s 22 25 mph 1020mb 80f 77f
Wed 10/18 11:50pm 8ft 8s 6s 22 25 mph 1020.5mb 80f 78f
10:50pm 8.5ft 7s 6s 22 27 mph 1020.4mb 80f 77f
9:50pm 9ft 9s 6s 25 29 mph 1020.4mb 80f 77f
8:50pm 9.5ft 9s 6s 27 31 mph 1020.1mb 80f 77f
7:50pm 10ft 8s 6s 25 29 mph 1020.4mb 80f 76f
6:50pm 10.5ft 8s 6s 25 31 mph 1020.1mb 80f 76f
5:50pm 10ft 8s 6s 27 36 mph 1019.7mb 80f 76f
4:50pm 10ft 8s 6s 27 34 mph 1019.8mb 80f 76f
3:50pm 10.5ft 8s 6s 27 34 mph 1019.4mb 80f 75f
2:50pm 9.5ft 8s 6s 27 34 mph 1019.2mb 80f 74f
1:50pm 9ft 8s 6s 27 34 mph 1019.7mb 80f 76f
12:50pm 9.5ft 8s 6s 27 31 mph 1020.3mb 80f 75f
11:50am 9ft 9s 6s 27 34 mph 1020.5mb 80f 75f
10:50am 9ft 8s 6s 27 31 mph 1020.6mb 80f 75f
9:50am 8.5ft 9s 6s 29 34 mph 1020.4mb 80f 75f
8:50am 9ft 9s 6s 25 31 mph 1020mb 80f 74f
7:50am 8.5ft 9s 6s 20 25 mph 1019.9mb 80f 73f
6:50am 9ft 10s 7s 22 27 mph 1019mb 79f 75f
5:50am 9ft 10s 6s 20 27 mph 1018.8mb 79f 75f
4:50am 9ft 9s 7s 20 25 mph 1019mb 79f 74f
3:50am 10ft 10s 7s 22 27 mph 1018.8mb 79f 74f